Volver al catálogo

FENGYUN 1C DEB

ActivoPO
NORAD 30386·DEBRIS·🇨🇳 China

Lanzado May 10, 1999 desde Taiyuan Satellite Launch Center

Loading…

Próximos Pases (próximas 24 horas)

TLE

ActualizadoSource: Space-Track

Época: Sep 14, 2026, 02:34 UTC

1 30386U 99025ACZ 26257.10734729  .00000855  00000-0  94184-3 0  9997
2 30386  98.6710 125.1596 0302271 161.4437 352.1699 13.56349929965616

Sigue FENGYUN 1C DEB en tiempo real con AllMySat

Download on the App Store